カタログに戻る

COSMOS 2251 DEB

運用中LEO
NORAD 39109·DEBRIS·🇷🇺 Russia

打ち上げ Jun 16, 1993 から Plesetsk Cosmodrome

Loading…

次のパス (今後24時間)

TLE

経年Source: Space-Track

元期: Sep 11, 2026, 04:05 UTC

1 39109U 93036BTY 26254.17071822  .00001981  00000-0  31086-3 0  9990
2 39109  74.0418  55.6680 0056787  89.8498  33.0750 14.72286402691816

AllMySatでCOSMOS 2251 DEBをリアルタイム追跡

Download on the App Store